This demonstration page uses our WeatherBlox Daily Observations layout. Learn more.

41.55636, -103.73856

Hourly Observations for December 3, 2015

Temp ( °F °C ) Dew Point ( °F °C ) Humidity (%) Winds ( mph kmh ) Pressure ( in mb ) Visibility ( mi km ) Precip ( " mm )
12:53 am 00:53 Clear 19 -7.2 13 -10.6 77 77 Calm 30.22 1023 10 16.0934 0 0
1:53 am 01:53 Clear 18 -7.8 13 -10.6 81 81 N 8 13 30.22 1023 10 16.0934 0 0
2:53 am 02:53 Clear 22 -5.6 15 -9.4 75 75 N 6 9 30.23 1024 10 16.0934 0 0
3:53 am 03:53 Clear 27 -2.8 19 -7.2 72 72 NW 7 11 30.23 1024 10 16.0934 0 0
4:53 am 04:53 Clear 29 -1.7 20 -6.7 69 69 WNW 10 17 30.27 1025 10 16.0934 0 0
5:53 am 05:53 Cloudy 30 -1.1 22 -5.6 72 72 NW 6 9 30.29 1026 10 16.0934 0 0
6:53 am 06:53 Clear 29 -1.7 21 -6.1 72 72 NW 12 19 30.33 1027 10 16.0934 0 0
7:53 am 07:53 Sunny 30 -1.1 21 -6.1 69 69 NW 9 15 30.35 1028 10 16.0934 0 0
8:53 am 08:53 Sunny 36 2.2 22 -5.6 57 57 WNW 9 15 30.36 1028 10 16.0934 0 0
9:53 am 09:53 Sunny 41 5 21 -6.1 45 45 WNW 13 20 30.35 1028 10 16.0934 0 0
10:53 am 10:53 Sunny 48 8.9 21 -6.1 34 34 WNW 12 19 30.31 1027 10 16.0934 0 0
11:53 am 11:53 Sunny 50 10 21 -6.1 32 32 WNW 9 15 30.28 1025 10 16.0934 0 0
12:53 pm 12:53 Sunny 51 10.6 21 -6.1 31 31 NW 7 11 30.27 1025 10 16.0934 0 0
1:53 pm 13:53 Sunny 51 10.6 21 -6.1 31 31 WSW 5 7 30.25 1024 10 16.0934 0 0
2:53 pm 14:53 Sunny 53 11.7 20 -6.7 27 27 Calm 30.22 1024 10 16.0934 0 0
3:53 pm 15:53 Sunny 47 8.3 21 -6.1 36 36 SE 6 9 30.23 1024 10 16.0934 0 0
4:53 pm 16:53 Clear 39 3.9 21 -6.1 48 48 SSE 7 11 30.24 1024 10 16.0934 0 0
5:53 pm 17:53 Clear 36 2.2 21 -6.1 55 55 S 3 6 30.25 1024 10 16.0934 0 0
6:53 pm 18:53 Clear 29 -1.7 19 -7.2 66 66 ESE 6 9 30.27 1025 10 16.0934 0 0
7:53 pm 19:53 Clear 28 -2.2 19 -7.2 69 69 E 8 13 30.27 1025 10 16.0934 0 0
8:53 pm 20:53 Clear 26 -3.3 19 -7.2 75 75 ENE 7 11 30.24 1024 10 16.0934 0 0
9:53 pm 21:53 Clear 27 -2.8 20 -6.7 75 75 E 7 11 30.22 1023 10 16.0934 0 0
10:53 pm 22:53 Clear 29 -1.7 21 -6.1 72 72 E 13 20 30.17 1022 10 16.0934 0 0
11:53 pm 23:53 Clear 29 -1.7 21 -6.1 72 72 E 12 19 30.13 1020 10 16.0934 0 0

Powered by AerisWeather